weather.gov     
National Weather Service

Terminal Aerodrome Forecast
NWS Homepage
This page is being discontinued on March 12, 2014.
The same data is available at this site. Please update your bookmarks.
Thank you, and we apologize for the inconvenience.
Please send an email to SR-SRH.Webmaster@noaa.gov with any concerns.


Current Version
Previous Version:    01  02  03  04  05  06  07  08  09  10  11  12  13  14  15  16  17  18  19  20  21  22  23  
[Printable]
299
FTUS45 KABQ 241700
TAFFMN
TAF
KFMN 241725Z 2418/2518 28011KT P6SM SCT100
     FM241900 31020G30KT P6SM BKN100
      TEMPO 2419/2423 30030G40KT 6SM BLDU
     FM242300 31021G31KT P6SM SCT100
     FM250100 31006KT P6SM SCT200
     FM250900 08008KT P6SM FEW100
     FM251600 27010KT P6SM FEW100=


U.S. Dept. of Commerce
NOAA National Weather Service
1325 East West Highway
Silver Spring, MD 20910
E-mail: w-nws.webmaster@noaa.gov
Page last modified: May 16, 2007
NATIONAL WEATHER SERVICE: for Safety, for Work, for Fun - FOR LIFE